Weather History for Bentonville, AR

Change the Weather History Date:

Friday, November 9, 2012

  Actual Average Record
Temperature  
Mean Temperature 64 °F -  
Max Temperature 73 °F 60 °F 81 °F (1980)
Min Temperature 55 °F 37 °F 11 °F (1991)
Degree Days  
Heating Degree Days 1    
Growing Degree Days 14 (Base 50)    
Moisture  
Dew Point 51 °F    
Average Humidity 63    
Maximum Humidity 77    
Minimum Humidity 53    
Precipitation  
Precipitation 0.00 in - - ()
Sea Level Pressure  
Sea Level Pressure 29.95 in    
Wind  
Wind Speed 11 mph (South)    
Max Wind Speed 18 mph    
Max Gust Speed 28 mph    
Visibility 10 miles    
Events      
Averages and records for this station are not official NWS values.
T = Trace of Precipitation, MM = Missing Value Source: NWS Daily Summary

Daily Weather History Graph

Daily Weather History Graph

Search for Another Location

Airport:

Trip Planner

Search our weather history database for the weather conditions in past years. The results will help you decide how hot, cold, wet, or windy it might be!

Date:

Astronomy

Nov. 09, 2012 Rise Set
Actual Time 6:48 AM CST 5:12 PM CST
Civil Twilight 6:21 AM CST 5:39 PM CST
Nautical Twilight 5:50 AM CST 6:10 PM CST
Astronomical Twilight 5:20 AM CST 6:40 PM CST
Moon 1:56 AM CST (11/9) 2:19 PM CST (11/9)
Length of Visible Light 11h 18m
Length of Day
10h 24m
Waning Crescent, 23% of the Moon is Illuminated
Nov 9
Waning Crescent
Nov 13
New
Nov 20
First Quarter
Nov 28
Full
Dec 6
Last Quarter

Hourly Weather History & Observations

Time (CST) Temp. Dew Point Humidity Pressure Visibility Wind Dir Wind Speed Gust Speed Precip Events Conditions
12:15 AM 55.4 °F 41.0 °F 58% 29.98 in 10.0 mi South 9.2 mph - N/A   Clear
12:35 AM 55.4 °F 41.0 °F 58% 29.98 in 10.0 mi South 9.2 mph - N/A   Clear
12:55 AM 55.4 °F 41.0 °F 58% 29.98 in 10.0 mi South 10.4 mph - N/A   Clear
1:15 AM 55.4 °F 42.8 °F 63% 29.98 in 10.0 mi South 8.1 mph - N/A   Clear
1:35 AM 55.4 °F 42.8 °F 63% 29.98 in 10.0 mi South 9.2 mph - N/A   Clear
1:55 AM 55.4 °F 42.8 °F 63% 29.97 in 10.0 mi South 8.1 mph - N/A   Clear
2:16 AM 55.4 °F 42.8 °F 63% 29.97 in 10.0 mi South 8.1 mph - N/A   Clear
2:35 AM 55.4 °F 42.8 °F 63% 29.97 in 10.0 mi South 9.2 mph - N/A   Clear
2:55 AM 55.4 °F 42.8 °F 63% 29.97 in 10.0 mi South 9.2 mph - N/A   Clear
3:15 AM 55.4 °F 42.8 °F 63% 29.97 in 10.0 mi South 9.2 mph - N/A   Clear
3:35 AM 55.4 °F 44.6 °F 67% 29.97 in 10.0 mi South 9.2 mph - N/A   Clear
3:55 AM 55.4 °F 44.6 °F 67% 29.97 in 10.0 mi South 9.2 mph - N/A   Clear
4:15 AM 57.2 °F 44.6 °F 63% 29.97 in 10.0 mi South 8.1 mph - N/A   Clear
4:55 AM 57.2 °F 46.4 °F 67% 29.98 in 10.0 mi South 9.2 mph - N/A   Clear
5:35 AM 57.2 °F 46.4 °F 67% 29.99 in 10.0 mi South 10.4 mph - N/A   Clear
6:15 AM 57.2 °F 48.2 °F 72% 29.99 in 10.0 mi South 10.4 mph 16.1 mph N/A   Clear
6:35 AM 57.2 °F 48.2 °F 72% 29.99 in 10.0 mi South 11.5 mph 17.3 mph N/A   Clear
7:15 AM 57.2 °F 50.0 °F 77% 30.00 in 10.0 mi South 11.5 mph 18.4 mph N/A   Clear
7:35 AM 59.0 °F 51.8 °F 77% 30.00 in 10.0 mi South 11.5 mph 17.3 mph N/A   Scattered Clouds
7:55 AM 60.8 °F 51.8 °F 72% 30.00 in 10.0 mi South 13.8 mph 20.7 mph N/A   Mostly Cloudy
9:35 AM 64.4 °F 55.4 °F 73% 30.01 in 10.0 mi South 10.4 mph 18.4 mph N/A   Clear
9:55 AM 66.2 °F 55.4 °F 68% 30.01 in 10.0 mi SSW 15.0 mph 19.6 mph N/A   Clear
10:35 AM 69.8 °F 55.4 °F 60% 30.02 in 10.0 mi SSW 17.3 mph 27.6 mph N/A   Clear
10:55 AM 69.8 °F 55.4 °F 60% 30.01 in 10.0 mi SSW 17.3 mph 23.0 mph N/A   Clear
11:35 AM 69.8 °F 55.4 °F 60% 29.99 in 10.0 mi SSW 18.4 mph 24.2 mph N/A   Clear
11:55 AM 69.8 °F 55.4 °F 60% 29.98 in 10.0 mi SSW 15.0 mph 21.9 mph N/A   Clear
12:15 PM 69.8 °F 55.4 °F 60% 29.97 in 10.0 mi SSW 17.3 mph - N/A   Clear
12:35 PM 71.6 °F 55.4 °F 57% 29.96 in 10.0 mi SSW 16.1 mph 21.9 mph N/A   Clear
1:15 PM 71.6 °F 55.4 °F 57% 29.94 in 10.0 mi South 15.0 mph 21.9 mph N/A   Clear
1:35 PM 71.6 °F 55.4 °F 57% 29.93 in 10.0 mi South 16.1 mph 24.2 mph N/A   Clear
1:55 PM 71.6 °F 55.4 °F 57% 29.93 in 10.0 mi South 18.4 mph 24.2 mph N/A   Clear
2:15 PM 73.4 °F 55.4 °F 53% 29.92 in 10.0 mi South 15.0 mph 23.0 mph N/A   Partly Cloudy
2:35 PM 73.4 °F 55.4 °F 53% 29.91 in 10.0 mi South 17.3 mph 24.2 mph N/A   Partly Cloudy
3:15 PM 73.4 °F 55.4 °F 53% 29.91 in 10.0 mi South 17.3 mph 24.2 mph N/A   Clear
3:35 PM 71.6 °F 55.4 °F 57% 29.91 in 10.0 mi South 13.8 mph 21.9 mph N/A   Clear
3:55 PM 71.6 °F 55.4 °F 57% 29.91 in 10.0 mi South 16.1 mph 24.2 mph N/A   Clear
4:15 PM 71.6 °F 55.4 °F 57% 29.91 in 10.0 mi SSW 17.3 mph 23.0 mph N/A   Clear
4:35 PM 69.8 °F 55.4 °F 60% 29.91 in 10.0 mi South 12.7 mph 17.3 mph N/A   Clear
4:55 PM 69.8 °F 53.6 °F 56% 29.90 in 10.0 mi South 11.5 mph 17.3 mph N/A   Clear
5:55 PM 66.2 °F 53.6 °F 64% 29.92 in 10.0 mi South 8.1 mph 17.3 mph N/A   Clear
6:15 PM 66.2 °F 53.6 °F 64% 29.92 in 10.0 mi South 10.4 mph 16.1 mph N/A   Clear
6:36 PM 66.2 °F 53.6 °F 64% 29.92 in 10.0 mi South 12.7 mph - N/A   Clear
6:55 PM 66.2 °F 53.6 °F 64% 29.92 in 10.0 mi South 9.2 mph 18.4 mph N/A   Clear
7:15 PM 66.2 °F 53.6 °F 64% 29.92 in 10.0 mi South 12.7 mph 20.7 mph N/A   Clear
7:55 PM 66.2 °F 53.6 °F 64% 29.93 in 10.0 mi South 11.5 mph 18.4 mph N/A   Clear
8:15 PM 66.2 °F 53.6 °F 64% 29.93 in 10.0 mi South 10.4 mph - N/A   Clear
8:35 PM 66.2 °F 53.6 °F 64% 29.93 in 10.0 mi South 10.4 mph 16.1 mph N/A   Clear
8:56 PM 66.2 °F 53.6 °F 64% 29.94 in 10.0 mi South 10.4 mph 18.4 mph N/A   Clear
9:15 PM 66.2 °F 53.6 °F 64% 29.94 in 10.0 mi South 11.5 mph 18.4 mph N/A   Clear
9:35 PM 66.2 °F 53.6 °F 64% 29.93 in 10.0 mi South 13.8 mph 18.4 mph N/A   Clear
9:56 PM 66.2 °F 53.6 °F 64% 29.93 in 10.0 mi South 12.7 mph 19.6 mph N/A   Clear
10:15 PM 64.4 °F 53.6 °F 68% 29.94 in 10.0 mi South 11.5 mph 18.4 mph N/A   Clear
10:35 PM 64.4 °F 53.6 °F 68% 29.94 in 10.0 mi South 10.4 mph - N/A   Clear
10:55 PM 64.4 °F 51.8 °F 64% 29.94 in 10.0 mi South 10.4 mph - N/A   Clear
11:16 PM 64.4 °F 51.8 °F 64% 29.94 in 10.0 mi South 9.2 mph - N/A   Clear
11:35 PM 64.4 °F 51.8 °F 64% 29.94 in 10.0 mi South 8.1 mph 18.4 mph N/A   Clear
11:55 PM 64.4 °F 51.8 °F 64% 29.94 in 10.0 mi South 11.5 mph - N/A   Clear